{"data":{"norad_id":50466,"epoch":"2026-09-20T05:25:10.943904Z","epoch_age_seconds":38051,"freshness":"FRESH","line1":"1 50466U 21131B   26263.22582111  .00000315  00000+0  11084-3 0  9995","line2":"2 50466  98.4968 355.0976 0004478 157.9559 202.1824 14.41428572248805","mean_motion":14.41428572,"eccentricity":0.0004478,"inclination_deg":98.4968,"raan_deg":355.0976,"arg_perigee_deg":157.9559,"mean_anomaly_deg":202.1824,"bstar":0.00011084,"rev_number":24880,"period_min":99.900891932646,"perigee_km":750.58868200857,"apogee_km":756.97602898335,"semimajor_km":7131.919355496,"source":"CELESTRAK","updated_at":"2026-09-20T09:00:45.236823Z"}}